Location: Asbacherhof
(48.8543°N, 10.7903°E)
Time: 23:46:58
(UTC+00:00)

Cosmos 1703 - Pass Details

Date: 26 May 2022
Orbit: 518 x 535 km, 82.5° (Epoch: 26 June)

Event Time Altitude Azimuth Distance (km) Brightness Sun altitude
Exits shadow 01:35:54 13° 170° (S) 1,622 5.3 -13.2°
Maximum altitude 01:39:19 52° 95° (E) 670 3.9 -12.9°
Drops below altitude 10° 01:43:09 10° 19° (NNE) 1,798 7.2 -12.5°
Sets 01:45:21 0° 14° (NNE) 2,691 8.3 -12.3°
